FCYPT GMMZ-GMAD

Flight info

Callsign FCYPT
Flight time N/A
Altitude 5000
Route VFR
Aircraft BE36/L-SDGRY/S

Departure

Time N/A
Airport Ouarzazate International Airport (GMMZ)

Arrival

Time 2026-05-04 20:11
Airport Al Massira Airport (GMAD)
Time Latitude Longitude Altitude Speed Heading
2026-05-04 19:27 30.96552 -7.41855 8974 ft 134 kts 269°
2026-05-04 19:28 30.96542 -7.42899 9099 ft 130 kts 269°
2026-05-04 19:28 30.96530 -7.43967 9217 ft 132 kts 269°
2026-05-04 19:28 30.96512 -7.45045 9363 ft 132 kts 269°
2026-05-04 19:28 30.96502 -7.46113 9494 ft 133 kts 269°
2026-05-04 19:29 30.96484 -7.47181 9630 ft 132 kts 269°
2026-05-04 19:29 30.96468 -7.48255 9758 ft 134 kts 269°
2026-05-04 19:29 30.96447 -7.49344 9882 ft 134 kts 269°
2026-05-04 19:29 30.96431 -7.50434 9996 ft 136 kts 269°
2026-05-04 19:30 30.96410 -7.51532 10116 ft 134 kts 269°
2026-05-04 19:30 30.96395 -7.52597 10234 ft 132 kts 269°
2026-05-04 19:30 30.96382 -7.53664 10350 ft 131 kts 269°
2026-05-04 19:30 30.96366 -7.54716 10468 ft 131 kts 269°
2026-05-04 19:31 30.96360 -7.55785 10576 ft 132 kts 270°
2026-05-04 19:31 30.96345 -7.56845 10693 ft 130 kts 269°
2026-05-04 19:31 30.96333 -7.57892 10800 ft 128 kts 269°
2026-05-04 19:31 30.96318 -7.58924 10908 ft 125 kts 269°
2026-05-04 19:32 30.96312 -7.59919 11051 ft 122 kts 269°
2026-05-04 19:32 30.96299 -7.60909 11164 ft 121 kts 269°
2026-05-04 19:32 30.96256 -7.61883 11289 ft 120 kts 262°
2026-05-04 19:32 30.96054 -7.62810 11396 ft 119 kts 254°
2026-05-04 19:33 30.95796 -7.63714 11507 ft 117 kts 254°
2026-05-04 19:33 30.95536 -7.64619 11561 ft 121 kts 254°
2026-05-04 19:33 30.95260 -7.65573 11568 ft 127 kts 254°
2026-05-04 19:33 30.94981 -7.66567 11570 ft 130 kts 254°
2026-05-04 19:34 30.94698 -7.67568 11574 ft 132 kts 254°
2026-05-04 19:34 30.94411 -7.68597 11573 ft 135 kts 254°
2026-05-04 19:34 30.94119 -7.69648 11571 ft 138 kts 254°
2026-05-04 19:34 30.93823 -7.70711 11571 ft 139 kts 254°
2026-05-04 19:35 30.93527 -7.71791 11572 ft 140 kts 254°
2026-05-04 19:35 30.93234 -7.72861 11569 ft 141 kts 254°
2026-05-04 19:35 30.92939 -7.73952 11575 ft 142 kts 254°
2026-05-04 19:35 30.92647 -7.75043 11578 ft 141 kts 254°
2026-05-04 19:36 30.92340 -7.76137 11570 ft 142 kts 254°
2026-05-04 19:36 30.92030 -7.77240 11570 ft 144 kts 254°
2026-05-04 19:36 30.91722 -7.78337 11576 ft 142 kts 254°
2026-05-04 19:36 30.91416 -7.79421 11570 ft 140 kts 254°
2026-05-04 19:37 30.91113 -7.80502 11562 ft 139 kts 255°
2026-05-04 19:37 30.90818 -7.81559 11559 ft 136 kts 255°
2026-05-04 19:37 30.90520 -7.82595 11552 ft 140 kts 254°
2026-05-04 19:37 30.90202 -7.83720 11441 ft 151 kts 254°
2026-05-04 19:38 30.89874 -7.84916 11336 ft 158 kts 254°
2026-05-04 19:38 30.89534 -7.86142 11226 ft 161 kts 254°
2026-05-04 19:38 30.89187 -7.87383 11103 ft 162 kts 254°
2026-05-04 19:38 30.88841 -7.88623 11061 ft 159 kts 254°
2026-05-04 19:39 30.88514 -7.89826 11089 ft 155 kts 255°
2026-05-04 19:39 30.88175 -7.91018 11074 ft 154 kts 254°
2026-05-04 19:39 30.87838 -7.92196 11068 ft 152 kts 254°
2026-05-04 19:39 30.87506 -7.93365 10975 ft 154 kts 254°
2026-05-04 19:40 30.87172 -7.94543 10863 ft 158 kts 254°
2026-05-04 19:40 30.86822 -7.95765 10741 ft 160 kts 254°
2026-05-04 19:40 30.86472 -7.97008 10620 ft 163 kts 254°
2026-05-04 19:40 30.86117 -7.98256 10576 ft 160 kts 254°
2026-05-04 19:41 30.85771 -7.99475 10571 ft 157 kts 254°
2026-05-04 19:41 30.85425 -8.00674 10573 ft 156 kts 254°
2026-05-04 19:41 30.85080 -8.01848 10574 ft 153 kts 254°
2026-05-04 19:41 30.84736 -8.03022 10567 ft 154 kts 254°
2026-05-04 19:42 30.84404 -8.04183 10562 ft 149 kts 254°
2026-05-04 19:42 30.84068 -8.05330 10574 ft 152 kts 255°
2026-05-04 19:42 30.83736 -8.06490 10577 ft 154 kts 254°
2026-05-04 19:42 30.83392 -8.07675 10577 ft 156 kts 254°
2026-05-04 19:43 30.83045 -8.08875 10575 ft 158 kts 254°
2026-05-04 19:43 30.82699 -8.10087 10570 ft 157 kts 254°
2026-05-04 19:43 30.82355 -8.11292 10558 ft 157 kts 253°
2026-05-04 19:43 30.82012 -8.12497 10549 ft 158 kts 254°
2026-05-04 19:44 30.81662 -8.13717 10487 ft 162 kts 253°
2026-05-04 19:44 30.81296 -8.14966 10372 ft 164 kts 252°
2026-05-04 19:44 30.80724 -8.16113 10262 ft 169 kts 237°
2026-05-04 19:44 30.79964 -8.17306 10145 ft 172 kts 237°
2026-05-04 19:45 30.79300 -8.18324 10036 ft 171 kts 238°
2026-05-04 19:45 30.78576 -8.19427 9925 ft 173 kts 236°
2026-05-04 19:45 30.77848 -8.20550 9793 ft 174 kts 236°
2026-05-04 19:45 30.77122 -8.21687 9661 ft 175 kts 238°
2026-05-04 19:46 30.76395 -8.22809 9543 ft 174 kts 236°
2026-05-04 19:46 30.75664 -8.23955 9358 ft 179 kts 237°
2026-05-04 19:46 30.74918 -8.25126 9160 ft 182 kts 236°
2026-05-04 19:46 30.74178 -8.26303 8966 ft 184 kts 238°
2026-05-04 19:47 30.73415 -8.27497 8757 ft 182 kts 235°
2026-05-04 19:47 30.72668 -8.28692 8571 ft 183 kts 238°
2026-05-04 19:47 30.71917 -8.29886 8389 ft 183 kts 237°
2026-05-04 19:47 30.71159 -8.31069 8200 ft 182 kts 237°
2026-05-04 19:48 30.70403 -8.32253 8008 ft 183 kts 237°
2026-05-04 19:48 30.69659 -8.33460 7818 ft 184 kts 238°
2026-05-04 19:48 30.68902 -8.34659 7616 ft 184 kts 237°
2026-05-04 19:48 30.68142 -8.35859 7421 ft 184 kts 237°
2026-05-04 19:49 30.67381 -8.37052 7236 ft 184 kts 237°
2026-05-04 19:49 30.66629 -8.38229 7044 ft 184 kts 237°
2026-05-04 19:49 30.65860 -8.39420 6857 ft 184 kts 237°
2026-05-04 19:49 30.65096 -8.40618 6680 ft 185 kts 237°
2026-05-04 19:50 30.64326 -8.41817 6493 ft 185 kts 237°
2026-05-04 19:50 30.63563 -8.43013 6298 ft 184 kts 238°
2026-05-04 19:50 30.62798 -8.44204 6094 ft 184 kts 236°
2026-05-04 19:50 30.62041 -8.45408 5899 ft 184 kts 237°
2026-05-04 19:51 30.61298 -8.46590 5698 ft 184 kts 236°
2026-05-04 19:51 30.60541 -8.47799 5494 ft 186 kts 236°
2026-05-04 19:51 30.59791 -8.49028 5301 ft 187 kts 237°
2026-05-04 19:51 30.59033 -8.50253 5103 ft 186 kts 236°
2026-05-04 19:52 30.58280 -8.51468 4910 ft 185 kts 237°
2026-05-04 19:52 30.57537 -8.52670 4714 ft 182 kts 237°
2026-05-04 19:52 30.56795 -8.53849 4518 ft 181 kts 237°
2026-05-04 19:52 30.56059 -8.55029 4324 ft 180 kts 237°
2026-05-04 19:53 30.55329 -8.56224 4131 ft 182 kts 236°
2026-05-04 19:53 30.54592 -8.57400 3929 ft 179 kts 237°
2026-05-04 19:53 30.53889 -8.58582 3756 ft 179 kts 237°
2026-05-04 19:53 30.53200 -8.59782 3558 ft 178 kts 237°
2026-05-04 19:54 30.52514 -8.60989 3354 ft 180 kts 237°
2026-05-04 19:54 30.51809 -8.62191 3154 ft 181 kts 237°
2026-05-04 19:54 30.51121 -8.63412 2961 ft 183 kts 237°
2026-05-04 19:54 30.50417 -8.64621 2770 ft 185 kts 236°
2026-05-04 19:55 30.49669 -8.65838 2573 ft 184 kts 237°
2026-05-04 19:55 30.48930 -8.67024 2535 ft 180 kts 236°
2026-05-04 19:55 30.48207 -8.68182 2525 ft 176 kts 237°
2026-05-04 19:55 30.47489 -8.69314 2528 ft 172 kts 236°
2026-05-04 19:56 30.46795 -8.70428 2524 ft 167 kts 235°
2026-05-04 19:56 30.46157 -8.71535 2528 ft 165 kts 238°
2026-05-04 19:56 30.45517 -8.72627 2525 ft 163 kts 235°
2026-05-04 19:56 30.44885 -8.73736 2528 ft 166 kts 238°
2026-05-04 19:57 30.44241 -8.74828 2532 ft 163 kts 235°
2026-05-04 19:57 30.43608 -8.75924 2517 ft 162 kts 238°
2026-05-04 19:57 30.42981 -8.76983 2531 ft 161 kts 236°
2026-05-04 19:57 30.42358 -8.78058 2515 ft 160 kts 237°
2026-05-04 19:58 30.41721 -8.79115 2524 ft 159 kts 237°
2026-05-04 19:58 30.41083 -8.80162 2518 ft 159 kts 236°
2026-05-04 19:58 30.40451 -8.81228 2521 ft 161 kts 237°
2026-05-04 19:58 30.39801 -8.82300 2520 ft 163 kts 238°
2026-05-04 19:59 30.39132 -8.83372 2516 ft 165 kts 236°
2026-05-04 19:59 30.38469 -8.84447 2508 ft 164 kts 236°
2026-05-04 19:59 30.37826 -8.85505 2517 ft 161 kts 237°
2026-05-04 19:59 30.37178 -8.86560 2522 ft 162 kts 238°
2026-05-04 20:00 30.36518 -8.87619 2525 ft 161 kts 236°
2026-05-04 20:00 30.35857 -8.88675 2529 ft 164 kts 237°
2026-05-04 20:00 30.35184 -8.89754 2539 ft 167 kts 235°
2026-05-04 20:00 30.34504 -8.90846 2528 ft 168 kts 237°
2026-05-04 20:01 30.33828 -8.91933 2518 ft 164 kts 236°
2026-05-04 20:01 30.33182 -8.93011 2518 ft 163 kts 237°
2026-05-04 20:01 30.32537 -8.94079 2516 ft 162 kts 237°
2026-05-04 20:01 30.31899 -8.95144 2513 ft 164 kts 236°
2026-05-04 20:02 30.31259 -8.96235 2512 ft 164 kts 236°
2026-05-04 20:02 30.30806 -8.97430 2505 ft 165 kts 261°
2026-05-04 20:02 30.30830 -8.98750 2510 ft 164 kts 277°
2026-05-04 20:02 30.31005 -9.00052 2512 ft 164 kts 278°
2026-05-04 20:03 30.31183 -9.01352 2504 ft 164 kts 276°
2026-05-04 20:03 30.31268 -9.02658 2519 ft 163 kts 271°
2026-05-04 20:03 30.31217 -9.03970 2514 ft 162 kts 266°
2026-05-04 20:03 30.31191 -9.05270 2518 ft 162 kts 269°
2026-05-04 20:04 30.31207 -9.06584 2524 ft 166 kts 270°
2026-05-04 20:04 30.31241 -9.07926 2507 ft 170 kts 271°
2026-05-04 20:04 30.31287 -9.09274 2500 ft 166 kts 269°
2026-05-04 20:04 30.31326 -9.10605 2499 ft 165 kts 271°
2026-05-04 20:05 30.31362 -9.11916 2509 ft 162 kts 269°
2026-05-04 20:05 30.31400 -9.13222 2515 ft 162 kts 270°
2026-05-04 20:05 30.31449 -9.14538 2501 ft 162 kts 271°
2026-05-04 20:05 30.31484 -9.15870 2491 ft 169 kts 269°
2026-05-04 20:06 30.31509 -9.17216 2507 ft 167 kts 270°
2026-05-04 20:06 30.31574 -9.18554 2509 ft 167 kts 270°
2026-05-04 20:06 30.31599 -9.19890 2502 ft 165 kts 270°
2026-05-04 20:06 30.31652 -9.21192 2515 ft 163 kts 268°
2026-05-04 20:07 30.31678 -9.22501 2506 ft 161 kts 270°
2026-05-04 20:07 30.31725 -9.23786 2508 ft 159 kts 270°
2026-05-04 20:07 30.31763 -9.25065 2515 ft 160 kts 268°
2026-05-04 20:07 30.31798 -9.26351 2446 ft 162 kts 270°
2026-05-04 20:08 30.31843 -9.27685 2235 ft 170 kts 269°
2026-05-04 20:08 30.31879 -9.29075 2006 ft 175 kts 271°
2026-05-04 20:08 30.31928 -9.30465 1779 ft 170 kts 271°
2026-05-04 20:08 30.31971 -9.31794 1554 ft 152 kts 269°
2026-05-04 20:09 30.32002 -9.32888 1371 ft 121 kts 269°
2026-05-04 20:09 30.32027 -9.33751 1228 ft 93 kts 267°
2026-05-04 20:09 30.32041 -9.34430 1123 ft 87 kts 269°
2026-05-04 20:09 30.32066 -9.35158 1014 ft 94 kts 270°
2026-05-04 20:10 30.32088 -9.35915 894 ft 96 kts 269°
2026-05-04 20:10 30.32132 -9.36675 768 ft 92 kts 265°
2026-05-04 20:10 30.32161 -9.37417 509 ft 97 kts 265°
2026-05-04 20:10 30.32182 -9.38173 476 ft 93 kts 267°
2026-05-04 20:11 30.32203 -9.38936 395 ft 95 kts 270°
2026-05-04 20:11 30.32220 -9.39653 279 ft 76 kts 270°
2026-05-04 20:11 30.32236 -9.40155 230 ft 51 kts 268°
2026-05-04 20:11 30.32242 -9.40475 226 ft 30 kts 271°
2026-05-04 20:12 30.32260 -9.40637 225 ft 13 kts 303°
2026-05-04 20:12 30.32336 -9.40676 225 ft 12 kts 360°
2026-05-04 20:12 30.32425 -9.40679 225 ft 14 kts
2026-05-04 20:12 30.32539 -9.40675 225 ft 19 kts 358°
2026-05-04 20:13 30.32681 -9.40669 225 ft 21 kts
2026-05-04 20:13 30.32790 -9.40690 225 ft 14 kts 305°
2026-05-04 20:13 30.32803 -9.40788 225 ft 12 kts 272°
2026-05-04 20:13 30.32813 -9.40891 225 ft 13 kts 317°
2026-05-04 20:14 30.32892 -9.40911 226 ft 13 kts 282°
2026-05-04 20:14 30.32864 -9.40952 225 ft 6 kts 153°
2026-05-04 20:14 30.32860 -9.40948 225 ft 0 kts 142°